sat.trackr.live / text

‹ back to catalog

STARLINK-4484

NORAD 53417 · 2022-097AF

PAYLOAD ACTIVE UNKNOWN

§ Identity

Operator
Country
US
Launch date
2022-08-10
Launch site
AFETR
Launch vehicle
Mass (kg)
RCS (m²)

Purposes: comms

External: N2YO · Heavens-Above · Gunter

§ Orbital elements

Epoch: 2026-05-25T03:05:09.998016Z

Period
95.44 min
Inclination
53.2152°
Eccentricity
0.0001428
Mean motion
15.08847762 rev/d
Perigee alt
538.7 km
Apogee alt
540.7 km
Semi-major
6,917.9 km
B*
4.0275e-4
RAAN
130.9711°
Arg perigee
74.6136°
Mean anomaly
285.5014°
Rev number
21,016

§ Raw data

STARLINK-44841 53417U 22097AF  26145.12858794  .00006129  00000+0  40275-3 0  99902 53417  53.2152 130.9711 0001428  74.6136 285.5014 15.08847762210167

JSON: /api/v1/satellites/53417 · /tle

For live sub-satellite position, see the globe view (requires WebGL).

§ Visibility from observer

Set your observer location to see the next 7 days of passes ≥ 10°. The values pass through the URL so the page stays shareable.

No JS? Fill the form by hand. The geolocation button needs JavaScript.